Flag for U.S.A. Weather past 2 weeks in Tulsa, Oklahoma, U.S.A.

Now
77 °F

Passing clouds.


Feels Like: 79 °F
Forecast: 63 / 80 °F
Wind: 8 mph from South

Location: Tulsa International Airport

Current Time: Sep 21, 2014 at 12:12:44 AM

Latest Report: Sep 20, 2014 at 11:53 PM


Visibility: 10 mi

Pressure: 29.99 "Hg

Humidity: 74%

Dew point: 68 °F

Location of TulsaLocation

Historic Weather in Tulsa — Graph

°F

Tulsa temperature yesterday

Maximum temperature yesterday: 88 °F (at 3:53 PM)
Minimum temperature yesterday: 69 °F (at 2:53 AM)
Average temperature yesterday: 78 °F

Past Weeks' High & Low Weather Summary

 TemperatureHumidityPressure
High96 °F (Sep 9, 3:53 PM)100% (Sep 6, 5:53 AM)30.37 "Hg (Sep 6, 5:53 AM)
Low51 °F (Sep 14, 6:53 AM)41% (Sep 9, 2:53 PM)29.61 "Hg (Sep 10, 6:53 AM)
Average72 °F75%30.02 "Hg
* Reported Sep 5 10:53 PM — Sep 20 10:53 PM, Tulsa, Weather by CustomWeather, © 2014

Note: Actual official high and low records may vary slightly from our data, if they occured in-between our weather recording intervals... More about our weather records

Advertising

Tulsa weather history for previous 24 hours

 ConditionsComfort  
Time TempWeatherWind HumidityBarometerVisibility
10:53 PM
Sep 20
76 °FPassing clouds.5 mph77%29.99 "Hg10 mi
9:53 PM79 °FPassing clouds.6 mph69%29.97 "Hg10 mi
8:53 PM80 °FPassing clouds.8 mph67%29.95 "Hg10 mi
7:53 PM81 °FPassing clouds.3 mph62%29.96 "Hg10 mi
6:53 PM85 °FPassing clouds.8 mph55%29.93 "Hg10 mi
5:53 PM87 °FPassing clouds.10 mph51%29.93 "Hg10 mi
4:53 PM88 °FPassing clouds.14 mph50%29.93 "Hg10 mi
3:53 PM88 °FScattered clouds.8 mph52%29.95 "Hg10 mi
2:53 PM87 °FScattered clouds.9 mph53%29.97 "Hg10 mi
1:53 PM86 °FPartly sunny.9 mph55%29.99 "Hg10 mi
12:53 PM85 °FScattered clouds.9 mph61%30.01 "Hg10 mi
7:53 AM70 °FFog.7 mph97%29.98 "Hg3 mi
6:53 AM69 °FFog.5 mph96%29.96 "Hg5 mi
5:53 AM70 °FFog.5 mph93%29.95 "Hg5 mi
4:53 AM70 °FFog.6 mph97%29.94 "Hg5 mi
3:53 AM70 °FFog.5 mph93%29.95 "Hg6 mi
2:53 AM69 °FFog.3 mph93%29.95 "Hg5 mi
1:53 AM73 °FClear.6 mph88%29.93 "Hg8 mi
12:53 AM74 °FClear.8 mph85%29.93 "Hg9 mi
Weather by CustomWeather, © 2014

See weather overviewHow to use our weather pages